Time,TemperatureF,DewpointF,PressureIn,WindDirection,WindDirectionDegrees,WindSpeedMPH,WindSpeedGustMPH,Humidity,HourlyPrecipIn,Conditions,Clouds,dailyrainin,SoftwareType,DateUTC
2013-02-04 00:00:00,48.0,31.2,29.89,ESE,112,0.0,0.0,52,0.00,,,0.00,Wunderground v.1.15,2013-02-04 07:00:00,
2013-02-04 00:05:00,48.1,30.8,29.86,ESE,111,0.0,0.0,51,0.00,,,0.00,Wunderground v.1.15,2013-02-04 07:05:00,
2013-02-04 00:15:00,48.2,30.9,29.86,ESE,112,0.0,0.0,51,0.00,,,0.00,Wunderground v.1.15,2013-02-04 07:15:00,
2013-02-04 00:20:00,48.2,30.9,29.86,ESE,112,0.0,0.0,51,0.00,,,0.00,Wunderground v.1.15,2013-02-04 07:20:00,
2013-02-04 00:25:00,48.3,31.0,29.86,ESE,112,0.0,0.0,51,0.00,,,0.00,Wunderground v.1.15,2013-02-04 07:25:00,
2013-02-04 00:30:00,48.3,31.0,29.86,ESE,111,0.0,0.0,51,0.00,,,0.00,Wunderground v.1.15,2013-02-04 07:30:00,
2013-02-04 00:40:00,48.3,31.0,29.86,ESE,111,0.0,0.0,51,0.00,,,0.00,Wunderground v.1.15,2013-02-04 07:40:00,
2013-02-04 00:50:00,48.3,31.0,29.86,ESE,112,0.0,0.0,51,0.00,,,0.00,Wunderground v.1.15,2013-02-04 07:50:00,
2013-02-04 00:55:00,48.3,31.0,29.86,ESE,111,0.0,0.0,51,0.00,,,0.00,Wunderground v.1.15,2013-02-04 07:55:00,
2013-02-04 01:00:00,48.3,31.0,29.86,ESE,112,0.0,0.0,51,0.00,,,0.00,Wunderground v.1.15,2013-02-04 08:00:00,
2013-02-04 01:05:00,48.2,30.9,29.86,ESE,111,0.0,0.0,51,0.00,,,0.00,Wunderground v.1.15,2013-02-04 08:05:00,
2013-02-04 01:15:00,48.2,30.9,29.86,North,10,0.0,0.0,51,0.00,,,0.00,Wunderground v.1.15,2013-02-04 08:15:00,
2013-02-04 01:20:00,48.3,30.5,29.87,North,10,0.0,0.0,50,0.00,,,0.00,Wunderground v.1.15,2013-02-04 08:20:00,
2013-02-04 01:25:00,48.3,30.5,29.86,North,10,0.0,0.0,50,0.00,,,0.00,Wunderground v.1.15,2013-02-04 08:25:00,
2013-02-04 01:35:00,48.4,30.1,29.87,North,10,0.0,0.0,49,0.00,,,0.00,Wunderground v.1.15,2013-02-04 08:35:00,
2013-02-04 01:40:00,48.4,30.1,29.87,North,10,0.0,0.0,49,0.00,,,0.00,Wunderground v.1.15,2013-02-04 08:40:00,
2013-02-04 01:45:00,48.3,30.0,29.87,North,10,0.0,0.0,49,0.00,,,0.00,Wunderground v.1.15,2013-02-04 08:45:00,
2013-02-04 01:50:00,48.2,29.9,29.86,North,10,0.0,0.0,49,0.00,,,0.00,Wunderground v.1.15,2013-02-04 08:50:00,
2013-02-04 01:55:00,48.0,30.2,29.87,North,10,0.0,0.0,50,0.00,,,0.00,Wunderground v.1.15,2013-02-04 08:55:00,
2013-02-04 02:00:00,47.8,30.0,29.87,North,10,0.0,0.0,50,0.00,,,0.00,Wunderground v.1.15,2013-02-04 09:00:00,
2013-02-04 02:05:00,47.6,29.9,29.86,North,10,0.0,0.0,50,0.00,,,0.00,Wunderground v.1.15,2013-02-04 09:05:00,
2013-02-04 02:15:00,46.9,30.2,29.87,North,10,0.0,0.0,52,0.00,,,0.00,Wunderground v.1.15,2013-02-04 09:15:00,
2013-02-04 02:20:00,46.6,30.4,29.86,North,10,0.0,0.0,53,0.00,,,0.00,Wunderground v.1.15,2013-02-04 09:20:00,
2013-02-04 02:30:00,46.3,30.1,29.86,North,10,0.0,0.0,53,0.00,,,0.00,Wunderground v.1.15,2013-02-04 09:30:00,
2013-02-04 02:35:00,46.2,30.5,29.86,North,10,0.0,0.0,54,0.00,,,0.00,Wunderground v.1.15,2013-02-04 09:35:00,
2013-02-04 02:40:00,46.2,30.5,29.86,North,10,0.0,0.0,54,0.00,,,0.00,Wunderground v.1.15,2013-02-04 09:40:00,
2013-02-04 02:45:00,46.1,30.4,29.87,North,10,0.0,0.0,54,0.00,,,0.00,Wunderground v.1.15,2013-02-04 09:45:00,
2013-02-04 02:50:00,46.1,30.4,29.87,North,10,0.0,0.0,54,0.00,,,0.00,Wunderground v.1.15,2013-02-04 09:50:00,
2013-02-04 02:55:00,46.0,30.3,29.87,North,10,0.0,0.0,54,0.00,,,0.00,Wunderground v.1.15,2013-02-04 09:55:00,
2013-02-04 03:00:00,45.9,30.2,29.87,North,10,0.0,0.0,54,0.00,,,0.00,Wunderground v.1.15,2013-02-04 10:00:00,
2013-02-04 03:05:00,45.8,30.1,29.88,North,10,0.0,0.0,54,0.00,,,0.00,Wunderground v.1.15,2013-02-04 10:05:00,
2013-02-04 03:15:00,45.5,29.8,29.88,North,10,0.0,0.0,54,0.00,,,0.00,Wunderground v.1.15,2013-02-04 10:15:00,
2013-02-04 03:20:00,45.3,29.6,29.89,North,10,0.0,0.0,54,0.00,,,0.00,Wunderground v.1.15,2013-02-04 10:20:00,
2013-02-04 03:25:00,45.2,29.5,29.89,North,10,0.0,0.0,54,0.00,,,0.00,Wunderground v.1.15,2013-02-04 10:25:00,
2013-02-04 03:30:00,45.0,29.3,29.89,North,10,0.0,0.0,54,0.00,,,0.00,Wunderground v.1.15,2013-02-04 10:30:00,
2013-02-04 03:35:00,44.7,29.5,29.89,North,10,0.0,0.0,55,0.00,,,0.00,Wunderground v.1.15,2013-02-04 10:35:00,
2013-02-04 03:40:00,44.5,29.3,29.88,North,10,0.0,0.0,55,0.00,,,0.00,Wunderground v.1.15,2013-02-04 10:40:00,
2013-02-04 03:45:00,44.3,29.1,29.88,North,10,0.0,0.0,55,0.00,,,0.00,Wunderground v.1.15,2013-02-04 10:45:00,
2013-02-04 03:50:00,44.1,28.9,29.89,North,10,0.0,0.0,55,0.00,,,0.00,Wunderground v.1.15,2013-02-04 10:50:00,
2013-02-04 03:55:00,44.0,28.9,29.89,North,10,0.0,0.0,55,0.00,,,0.00,Wunderground v.1.15,2013-02-04 10:55:00,
2013-02-04 04:05:00,43.4,28.7,29.90,North,10,0.0,0.0,56,0.00,,,0.00,Wunderground v.1.15,2013-02-04 11:05:00,
2013-02-04 04:15:00,42.6,28.0,29.90,North,10,0.0,0.0,56,0.00,,,0.00,Wunderground v.1.15,2013-02-04 11:15:00,
2013-02-04 04:20:00,42.3,27.3,29.92,NW,322,0.0,0.0,55,0.00,,,0.00,Wunderground v.1.15,2013-02-04 11:20:00,
2013-02-04 04:25:00,41.9,26.4,29.91,NE,39,0.0,0.0,54,0.00,,,0.00,Wunderground v.1.15,2013-02-04 11:25:00,
2013-02-04 04:30:00,41.3,25.9,29.91,North,355,0.0,0.0,54,0.00,,,0.00,Wunderground v.1.15,2013-02-04 11:30:00,
2013-02-04 04:35:00,40.8,25.9,29.92,NNW,346,0.0,0.0,55,0.00,,,0.00,Wunderground v.1.15,2013-02-04 11:35:00,
2013-02-04 04:45:00,40.0,25.6,29.92,NW,315,0.0,0.0,56,0.00,,,0.00,Wunderground v.1.15,2013-02-04 11:45:00,
2013-02-04 04:50:00,39.6,25.2,29.93,NW,316,0.0,0.0,56,0.00,,,0.00,Wunderground v.1.15,2013-02-04 11:50:00,
2013-02-04 04:55:00,39.3,25.3,29.93,North,360,0.0,0.0,57,0.00,,,0.00,Wunderground v.1.15,2013-02-04 11:55:00,
2013-02-04 05:00:00,39.1,25.1,29.93,NE,34,0.0,0.0,57,0.00,,,0.00,Wunderground v.1.15,2013-02-04 12:00:00,
2013-02-04 05:10:00,38.8,25.3,29.94,NE,37,0.0,0.0,58,0.00,,,0.00,Wunderground v.1.15,2013-02-04 12:10:00,
2013-02-04 05:20:00,38.9,25.4,29.95,North,355,0.0,0.0,58,0.00,,,0.00,Wunderground v.1.15,2013-02-04 12:20:00,
2013-02-04 05:25:00,38.9,24.9,29.95,NNE,19,0.0,0.0,57,0.00,,,0.00,Wunderground v.1.15,2013-02-04 12:25:00,
2013-02-04 05:30:00,38.9,24.5,29.95,NNE,19,0.0,0.0,56,0.00,,,0.00,Wunderground v.1.15,2013-02-04 12:30:00,
2013-02-04 05:35:00,39.0,24.6,29.95,North,360,0.0,0.0,56,0.00,,,0.00,Wunderground v.1.15,2013-02-04 12:35:00,
2013-02-04 05:40:00,39.3,24.0,29.96,North,11,0.0,0.0,54,0.00,,,0.00,Wunderground v.1.15,2013-02-04 12:40:00,
2013-02-04 05:45:00,39.6,23.9,29.95,NNE,20,0.0,0.0,53,0.00,,,0.00,Wunderground v.1.15,2013-02-04 12:45:00,
2013-02-04 05:55:00,40.0,23.8,29.95,North,5,0.0,0.0,52,0.00,,,0.00,Wunderground v.1.15,2013-02-04 12:55:00,
2013-02-04 06:05:00,40.3,23.6,29.97,NNW,340,0.0,0.0,51,0.00,,,0.00,Wunderground v.1.15,2013-02-04 13:05:00,
2013-02-04 06:15:00,40.6,23.9,29.96,North,355,0.0,0.0,51,0.00,,,0.00,Wunderground v.1.15,2013-02-04 13:15:00,
2013-02-04 06:20:00,40.5,23.8,29.96,North,355,0.0,0.0,51,0.00,,,0.00,Wunderground v.1.15,2013-02-04 13:20:00,
2013-02-04 06:25:00,40.4,23.7,29.97,NNE,26,0.0,0.0,51,0.00,,,0.00,Wunderground v.1.15,2013-02-04 13:25:00,
2013-02-04 06:30:00,40.2,23.5,29.98,NNE,28,0.0,0.0,51,0.00,,,0.00,Wunderground v.1.15,2013-02-04 13:30:00,
2013-02-04 06:35:00,40.0,23.3,29.98,NNE,28,0.0,0.0,51,0.00,,,0.00,Wunderground v.1.15,2013-02-04 13:35:00,
2013-02-04 06:40:00,39.8,23.1,29.98,NNE,28,0.0,0.0,51,0.00,,,0.00,Wunderground v.1.15,2013-02-04 13:40:00,
2013-02-04 06:50:00,39.6,23.4,29.98,NNE,28,0.0,0.0,52,0.00,,,0.00,Wunderground v.1.15,2013-02-04 13:50:00,
2013-02-04 06:55:00,39.5,23.8,29.98,NNE,28,0.0,0.0,53,0.00,,,0.00,Wunderground v.1.15,2013-02-04 13:55:00,
2013-02-04 07:05:00,39.3,23.6,29.99,NNE,28,0.0,0.0,53,0.00,,,0.00,Wunderground v.1.15,2013-02-04 14:05:00,
2013-02-04 07:15:00,39.1,23.8,30.00,NNE,28,0.0,0.0,54,0.00,,,0.00,Wunderground v.1.15,2013-02-04 14:15:00,
2013-02-04 07:20:00,38.9,23.7,30.00,NNE,24,0.0,0.0,54,0.00,,,0.00,Wunderground v.1.15,2013-02-04 14:20:00,
2013-02-04 07:25:00,38.9,23.7,30.01,NNE,24,0.0,0.0,54,0.00,,,0.00,Wunderground v.1.15,2013-02-04 14:25:00,
2013-02-04 07:35:00,38.8,23.6,30.01,NNE,23,0.0,0.0,54,0.00,,,0.00,Wunderground v.1.15,2013-02-04 14:35:00,
2013-02-04 07:40:00,38.8,23.6,30.01,NNE,24,0.0,0.0,54,0.00,,,0.00,Wunderground v.1.15,2013-02-04 14:40:00,
2013-02-04 07:50:00,39.1,24.7,30.01,NNE,22,0.0,0.0,56,0.00,,,0.00,Wunderground v.1.15,2013-02-04 14:50:00,
2013-02-04 07:55:00,39.7,25.7,30.01,NNE,13,0.0,0.0,57,0.00,,,0.00,Wunderground v.1.15,2013-02-04 14:55:00,
2013-02-04 08:00:00,40.5,26.4,30.01,NNE,13,0.0,0.0,57,0.00,,,0.00,Wunderground v.1.15,2013-02-04 15:00:00,
2013-02-04 08:05:00,41.5,27.4,30.00,NNW,346,0.0,0.0,57,0.00,,,0.00,Wunderground v.1.15,2013-02-04 15:05:00,
2013-02-04 08:15:00,44.2,29.9,29.99,NNW,341,0.0,0.0,57,0.00,,,0.00,Wunderground v.1.15,2013-02-04 15:15:00,
2013-02-04 08:20:00,45.4,30.2,29.98,NNW,340,0.0,0.0,55,0.00,,,0.00,Wunderground v.1.15,2013-02-04 15:20:00,
2013-02-04 08:25:00,46.1,29.9,29.98,NNW,344,0.0,0.0,53,0.00,,,0.00,Wunderground v.1.15,2013-02-04 15:25:00,
2013-02-04 08:30:00,46.6,30.4,29.98,North,351,0.0,0.0,53,0.00,,,0.00,Wunderground v.1.15,2013-02-04 15:30:00,
2013-02-04 08:35:00,47.0,30.3,29.98,NE,42,0.0,0.0,52,0.00,,,0.00,Wunderground v.1.15,2013-02-04 15:35:00,
2013-02-04 08:40:00,47.4,29.7,29.98,NNW,344,0.0,0.0,50,0.00,,,0.00,Wunderground v.1.15,2013-02-04 15:40:00,
2013-02-04 08:45:00,47.7,30.0,29.98,NNW,340,0.0,0.0,50,0.00,,,0.00,Wunderground v.1.15,2013-02-04 15:45:00,
2013-02-04 08:55:00,48.2,29.9,29.99,North,355,0.0,0.0,49,0.00,,,0.00,Wunderground v.1.15,2013-02-04 15:55:00,
2013-02-04 09:00:00,48.6,29.8,29.98,NW,314,0.0,0.0,48,0.00,,,0.00,Wunderground v.1.15,2013-02-04 16:00:00,
2013-02-04 09:05:00,49.0,30.1,29.99,NW,325,0.0,0.0,48,0.00,,,0.00,Wunderground v.1.15,2013-02-04 16:05:00,
2013-02-04 09:15:00,49.8,30.4,30.00,North,355,0.0,0.0,47,0.00,,,0.00,Wunderground v.1.15,2013-02-04 16:15:00,
2013-02-04 09:20:00,50.2,30.2,30.00,NNW,333,0.0,0.0,46,0.00,,,0.00,Wunderground v.1.15,2013-02-04 16:20:00,
2013-02-04 09:25:00,50.5,30.5,30.00,NE,44,0.0,0.0,46,0.00,,,0.00,Wunderground v.1.15,2013-02-04 16:25:00,
2013-02-04 09:30:00,50.9,30.3,29.99,NNE,17,0.0,0.0,45,0.00,,,0.00,Wunderground v.1.15,2013-02-04 16:30:00,
2013-02-04 09:35:00,51.3,30.7,29.99,NE,53,0.0,0.0,45,0.00,,,0.00,Wunderground v.1.15,2013-02-04 16:35:00,
2013-02-04 09:40:00,51.9,31.2,29.99,NE,53,0.0,0.0,45,0.00,,,0.00,Wunderground v.1.15,2013-02-04 16:40:00,
2013-02-04 09:50:00,52.9,31.0,29.98,NE,46,0.0,0.0,43,0.00,,,0.00,Wunderground v.1.15,2013-02-04 16:50:00,
2013-02-04 09:55:00,53.6,31.6,29.98,NE,46,0.0,0.0,43,0.00,,,0.00,Wunderground v.1.15,2013-02-04 16:55:00,
2013-02-04 10:05:00,55.0,31.7,29.99,NE,55,0.0,0.0,41,0.00,,,0.00,Wunderground v.1.15,2013-02-04 17:05:00,
2013-02-04 10:15:00,56.4,32.4,29.98,NNW,340,0.0,0.0,40,0.00,,,0.00,Wunderground v.1.15,2013-02-04 17:15:00,
2013-02-04 10:25:00,57.8,33.0,29.96,WNW,283,0.0,1.0,39,0.00,,,0.00,Wunderground v.1.15,2013-02-04 17:25:00,
2013-02-04 10:30:00,58.2,32.7,29.97,NNW,343,1.0,1.0,38,0.00,,,0.00,Wunderground v.1.15,2013-02-04 17:30:00,
2013-02-04 10:35:00,58.8,32.6,29.96,NNW,338,0.0,1.0,37,0.00,,,0.00,Wunderground v.1.15,2013-02-04 17:35:00,
2013-02-04 10:40:00,59.3,33.0,29.96,NNW,335,0.0,0.0,37,0.00,,,0.00,Wunderground v.1.15,2013-02-04 17:40:00,
2013-02-04 10:45:00,59.8,32.8,29.95,North,355,0.0,0.0,36,0.00,,,0.00,Wunderground v.1.15,2013-02-04 17:45:00,
2013-02-04 10:50:00,60.2,33.1,29.95,North,360,0.0,0.0,36,0.00,,,0.00,Wunderground v.1.15,2013-02-04 17:50:00,
2013-02-04 10:55:00,60.7,32.9,29.94,NNW,346,0.0,0.0,35,0.00,,,0.00,Wunderground v.1.15,2013-02-04 17:55:00,
2013-02-04 11:00:00,61.2,33.3,29.94,WNW,302,0.0,2.0,35,0.00,,,0.00,Wunderground v.1.15,2013-02-04 18:00:00,
2013-02-04 11:05:00,61.5,32.8,29.93,North,355,1.0,2.0,34,0.00,,,0.00,Wunderground v.1.15,2013-02-04 18:05:00,
2013-02-04 11:15:00,62.5,33.7,29.93,North,355,0.0,1.0,34,0.00,,,0.00,Wunderground v.1.15,2013-02-04 18:15:00,
2013-02-04 11:20:00,63.1,33.5,29.93,North,355,0.0,0.0,33,0.00,,,0.00,Wunderground v.1.15,2013-02-04 18:20:00,
2013-02-04 11:25:00,63.5,33.9,29.92,NW,304,0.0,0.0,33,0.00,,,0.00,Wunderground v.1.15,2013-02-04 18:25:00,
2013-02-04 11:30:00,63.7,34.0,29.92,North,355,0.0,0.0,33,0.00,,,0.00,Wunderground v.1.15,2013-02-04 18:30:00,
2013-02-04 11:35:00,64.1,33.6,29.91,North,355,0.0,0.0,32,0.00,,,0.00,Wunderground v.1.15,2013-02-04 18:35:00,
2013-02-04 11:40:00,64.4,33.9,29.91,North,355,0.0,0.0,32,0.00,,,0.00,Wunderground v.1.15,2013-02-04 18:40:00,
2013-02-04 11:45:00,64.7,34.1,29.91,WNW,300,0.0,0.0,32,0.00,,,0.00,Wunderground v.1.15,2013-02-04 18:45:00,
2013-02-04 11:50:00,64.9,33.5,29.91,WNW,293,1.0,1.0,31,0.00,,,0.00,Wunderground v.1.15,2013-02-04 18:50:00,
2013-02-04 11:55:00,65.0,33.6,29.90,NW,326,1.0,1.0,31,0.00,,,0.00,Wunderground v.1.15,2013-02-04 18:55:00,
2013-02-04 12:05:00,65.4,33.1,29.90,NNW,333,1.0,1.0,30,0.00,,,0.00,Wunderground v.1.15,2013-02-04 19:05:00,
2013-02-04 12:15:00,65.7,33.4,29.89,NW,312,1.0,1.0,30,0.00,,,0.00,Wunderground v.1.15,2013-02-04 19:15:00,
2013-02-04 12:25:00,66.2,33.0,29.88,NW,322,0.0,0.0,29,0.00,,,0.00,Wunderground v.1.15,2013-02-04 19:25:00,
2013-02-04 12:30:00,66.0,33.7,29.88,NNW,346,0.0,1.0,30,0.00,,,0.00,Wunderground v.1.15,2013-02-04 19:30:00,
2013-02-04 12:40:00,66.1,32.9,29.87,NNW,343,0.0,0.0,29,0.00,,,0.00,Wunderground v.1.15,2013-02-04 19:40:00,
2013-02-04 12:45:00,66.0,32.8,29.87,NNW,334,0.0,0.0,29,0.00,,,0.00,Wunderground v.1.15,2013-02-04 19:45:00,
2013-02-04 12:50:00,66.2,33.0,29.86,WNW,299,1.0,1.0,29,0.00,,,0.00,Wunderground v.1.15,2013-02-04 19:50:00,
2013-02-04 12:55:00,66.4,33.2,29.86,NW,309,1.0,1.0,29,0.00,,,0.00,Wunderground v.1.15,2013-02-04 19:55:00,
2013-02-04 13:00:00,66.8,33.5,29.86,NNW,327,0.0,0.0,29,0.00,,,0.00,Wunderground v.1.15,2013-02-04 20:00:00,
2013-02-04 13:05:00,67.2,33.0,29.86,West,281,0.0,0.0,28,0.00,,,0.00,Wunderground v.1.15,2013-02-04 20:05:00,
2013-02-04 13:15:00,67.2,32.1,29.85,NW,322,0.0,0.0,27,0.00,,,0.00,Wunderground v.1.15,2013-02-04 20:15:00,
2013-02-04 13:20:00,67.2,33.0,29.86,NW,306,0.0,0.0,28,0.00,,,0.00,Wunderground v.1.15,2013-02-04 20:20:00,
2013-02-04 13:25:00,67.1,32.9,29.86,WNW,302,0.0,0.0,28,0.00,,,0.00,Wunderground v.1.15,2013-02-04 20:25:00,
2013-02-04 13:35:00,67.2,32.1,29.85,NW,325,0.0,2.0,27,0.00,,,0.00,Wunderground v.1.15,2013-02-04 20:35:00,
2013-02-04 13:40:00,67.0,32.8,29.85,West,275,1.0,4.0,28,0.00,,,0.00,Wunderground v.1.15,2013-02-04 20:40:00,
2013-02-04 13:45:00,66.9,32.7,29.85,NW,306,0.0,4.0,28,0.00,,,0.00,Wunderground v.1.15,2013-02-04 20:45:00,
2013-02-04 13:50:00,67.0,32.8,29.85,WNW,295,0.0,0.0,28,0.00,,,0.00,Wunderground v.1.15,2013-02-04 20:50:00,
2013-02-04 13:55:00,67.2,33.0,29.84,NW,314,0.0,1.0,28,0.00,,,0.00,Wunderground v.1.15,2013-02-04 20:55:00,
2013-02-04 14:00:00,67.3,33.1,29.84,West,281,0.0,0.0,28,0.00,,,0.00,Wunderground v.1.15,2013-02-04 21:00:00,
2013-02-04 14:05:00,67.1,32.9,29.85,WNW,290,1.0,1.0,28,0.00,,,0.00,Wunderground v.1.15,2013-02-04 21:05:00,
2013-02-04 14:15:00,67.1,32.0,29.85,North,349,0.0,1.0,27,0.00,,,0.00,Wunderground v.1.15,2013-02-04 21:15:00,
2013-02-04 14:20:00,67.0,32.8,29.85,NW,326,0.0,0.0,28,0.00,,,0.00,Wunderground v.1.15,2013-02-04 21:20:00,
2013-02-04 14:25:00,67.2,33.0,29.85,WNW,302,0.0,2.0,28,0.00,,,0.00,Wunderground v.1.15,2013-02-04 21:25:00,
2013-02-04 14:30:00,67.4,32.2,29.85,NW,313,0.0,0.0,27,0.00,,,0.00,Wunderground v.1.15,2013-02-04 21:30:00,
2013-02-04 14:35:00,67.4,33.1,29.85,West,271,1.0,1.0,28,0.00,,,0.00,Wunderground v.1.15,2013-02-04 21:35:00,
2013-02-04 14:45:00,67.2,33.0,29.85,WNW,282,0.0,3.0,28,0.00,,,0.00,Wunderground v.1.15,2013-02-04 21:45:00,
2013-02-04 14:55:00,66.9,32.7,29.85,WSW,250,0.0,1.0,28,0.00,,,0.00,Wunderground v.1.15,2013-02-04 21:55:00,
2013-02-04 15:00:00,66.8,32.6,29.85,West,279,0.0,0.0,28,0.00,,,0.00,Wunderground v.1.15,2013-02-04 22:00:00,
2013-02-04 15:05:00,66.8,31.7,29.85,NNW,341,0.0,0.0,27,0.00,,,0.00,Wunderground v.1.15,2013-02-04 22:05:00,
2013-02-04 15:15:00,66.5,31.5,29.85,NW,312,0.0,1.0,27,0.00,,,0.00,Wunderground v.1.15,2013-02-04 22:15:00,
2013-02-04 15:20:00,66.4,31.4,29.85,WNW,286,0.0,0.0,27,0.00,,,0.00,Wunderground v.1.15,2013-02-04 22:20:00,
2013-02-04 15:25:00,66.2,32.1,29.85,NW,325,0.0,0.0,28,0.00,,,0.00,Wunderground v.1.15,2013-02-04 22:25:00,
2013-02-04 15:30:00,66.0,31.9,29.85,NW,323,0.0,0.0,28,0.00,,,0.00,Wunderground v.1.15,2013-02-04 22:30:00,
2013-02-04 15:35:00,66.0,31.0,29.85,WNW,300,0.0,0.0,27,0.00,,,0.00,Wunderground v.1.15,2013-02-04 22:35:00,
2013-02-04 15:45:00,65.8,30.9,29.85,NW,306,0.0,0.0,27,0.00,,,0.00,Wunderground v.1.15,2013-02-04 22:45:00,
2013-02-04 15:50:00,65.7,30.8,29.85,WNW,294,0.0,3.0,27,0.00,,,0.00,Wunderground v.1.15,2013-02-04 22:50:00,
2013-02-04 15:55:00,65.3,30.4,29.86,North,360,0.0,3.0,27,0.00,,,0.00,Wunderground v.1.15,2013-02-04 22:55:00,
2013-02-04 16:05:00,64.8,30.9,29.88,NW,314,0.0,0.0,28,0.00,,,0.00,Wunderground v.1.15,2013-02-04 23:05:00,
2013-02-04 16:15:00,64.3,30.5,29.89,WNW,302,0.0,0.0,28,0.00,,,0.00,Wunderground v.1.15,2013-02-04 23:15:00,
2013-02-04 16:20:00,64.0,31.1,29.89,West,263,0.0,0.0,29,0.00,,,0.00,Wunderground v.1.15,2013-02-04 23:20:00,
2013-02-04 16:25:00,63.9,31.0,29.89,WNW,299,0.0,0.0,29,0.00,,,0.00,Wunderground v.1.15,2013-02-04 23:25:00,
2013-02-04 16:35:00,63.6,30.7,29.89,WNW,302,0.0,0.0,29,0.00,,,0.00,Wunderground v.1.15,2013-02-04 23:35:00,
2013-02-04 16:40:00,63.4,30.6,29.89,WNW,302,0.0,0.0,29,0.00,,,0.00,Wunderground v.1.15,2013-02-04 23:40:00,
2013-02-04 16:50:00,63.0,30.2,29.89,NW,306,0.0,0.0,29,0.00,,,0.00,Wunderground v.1.15,2013-02-04 23:50:00,
2013-02-04 16:55:00,62.9,30.1,29.89,NW,306,0.0,0.0,29,0.00,,,0.00,Wunderground v.1.15,2013-02-04 23:55:00,
2013-02-04 17:00:00,62.6,29.9,29.89,NW,306,0.0,0.0,29,0.00,,,0.00,Wunderground v.1.15,2013-02-05 00:00:00,
2013-02-04 17:05:00,62.3,29.6,29.89,NW,306,0.0,0.0,29,0.00,,,0.00,Wunderground v.1.15,2013-02-05 00:05:00,
2013-02-04 17:15:00,61.8,29.2,29.89,NW,306,0.0,0.0,29,0.00,,,0.00,Wunderground v.1.15,2013-02-05 00:15:00,
2013-02-04 17:20:00,61.6,29.0,29.89,NW,310,0.0,0.0,29,0.00,,,0.00,Wunderground v.1.15,2013-02-05 00:20:00,
2013-02-04 17:25:00,61.4,28.8,29.90,NW,310,0.0,0.0,29,0.00,,,0.00,Wunderground v.1.15,2013-02-05 00:25:00,
2013-02-04 17:30:00,61.1,28.6,29.90,NW,310,0.0,0.0,29,0.00,,,0.00,Wunderground v.1.15,2013-02-05 00:30:00,
2013-02-04 17:35:00,60.8,29.1,29.90,NW,310,0.0,0.0,30,0.00,,,0.00,Wunderground v.1.15,2013-02-05 00:35:00,
2013-02-04 17:40:00,60.5,28.9,29.90,NW,310,0.0,0.0,30,0.00,,,0.00,Wunderground v.1.15,2013-02-05 00:40:00,
2013-02-04 17:45:00,60.2,28.6,29.90,NW,310,0.0,0.0,30,0.00,,,0.00,Wunderground v.1.15,2013-02-05 00:45:00,
2013-02-04 17:50:00,59.9,28.4,29.90,NW,310,0.0,0.0,30,0.00,,,0.00,Wunderground v.1.15,2013-02-05 00:50:00,
2013-02-04 18:00:00,59.1,28.5,29.91,NW,310,0.0,0.0,31,0.00,,,0.00,Wunderground v.1.15,2013-02-05 01:00:00,
2013-02-04 18:05:00,59.0,28.4,29.91,NW,310,0.0,0.0,31,0.00,,,0.00,Wunderground v.1.15,2013-02-05 01:05:00,
2013-02-04 18:15:00,58.2,27.7,29.92,NW,310,0.0,0.0,31,0.00,,,0.00,Wunderground v.1.15,2013-02-05 01:15:00,
2013-02-04 18:20:00,57.9,27.4,29.92,NW,310,0.0,0.0,31,0.00,,,0.00,Wunderground v.1.15,2013-02-05 01:20:00,
2013-02-04 18:30:00,57.2,27.6,29.93,NW,310,0.0,0.0,32,0.00,,,0.00,Wunderground v.1.15,2013-02-05 01:30:00,
2013-02-04 18:35:00,56.9,27.3,29.93,NW,310,0.0,0.0,32,0.00,,,0.00,Wunderground v.1.15,2013-02-05 01:35:00,
2013-02-04 18:40:00,56.5,27.0,29.93,NW,310,0.0,0.0,32,0.00,,,0.00,Wunderground v.1.15,2013-02-05 01:40:00,
2013-02-04 18:45:00,55.8,27.1,29.94,NW,310,0.0,0.0,33,0.00,,,0.00,Wunderground v.1.15,2013-02-05 01:45:00,
2013-02-04 18:55:00,54.3,26.5,29.95,NW,310,0.0,0.0,34,0.00,,,0.00,Wunderground v.1.15,2013-02-05 01:55:00,
2013-02-04 19:00:00,53.7,26.0,29.95,NW,310,0.0,0.0,34,0.00,,,0.00,Wunderground v.1.15,2013-02-05 02:00:00,
2013-02-04 19:05:00,53.1,26.1,29.94,NW,310,0.0,0.0,35,0.00,,,0.00,Wunderground v.1.15,2013-02-05 02:05:00,
2013-02-04 19:15:00,52.2,25.3,29.95,NW,310,0.0,0.0,35,0.00,,,0.00,Wunderground v.1.15,2013-02-05 02:15:00,
2013-02-04 19:20:00,52.0,25.2,29.96,NW,310,0.0,0.0,35,0.00,,,0.00,Wunderground v.1.15,2013-02-05 02:20:00,
2013-02-04 19:30:00,51.5,24.7,29.96,NW,310,0.0,0.0,35,0.00,,,0.00,Wunderground v.1.15,2013-02-05 02:30:00,
2013-02-04 19:35:00,51.1,24.4,29.96,NW,310,0.0,0.0,35,0.00,,,0.00,Wunderground v.1.15,2013-02-05 02:35:00,
2013-02-04 19:40:00,50.7,24.7,29.96,NW,310,0.0,0.0,36,0.00,,,0.00,Wunderground v.1.15,2013-02-05 02:40:00,
2013-02-04 19:45:00,50.3,25.0,29.97,NW,310,0.0,0.0,37,0.00,,,0.00,Wunderground v.1.15,2013-02-05 02:45:00,
2013-02-04 19:50:00,50.0,24.7,29.97,NW,310,0.0,0.0,37,0.00,,,0.00,Wunderground v.1.15,2013-02-05 02:50:00,
2013-02-04 19:55:00,49.7,24.5,29.97,NW,310,0.0,0.0,37,0.00,,,0.00,Wunderground v.1.15,2013-02-05 02:55:00,
2013-02-04 20:00:00,49.5,24.9,29.97,NW,310,0.0,0.0,38,0.00,,,0.00,Wunderground v.1.15,2013-02-05 03:00:00,
2013-02-04 20:05:00,49.2,24.6,29.93,NW,310,0.0,0.0,38,0.00,,,0.00,Wunderground v.1.15,2013-02-05 03:05:00,
2013-02-04 20:15:00,49.0,24.5,29.94,NW,310,0.0,0.0,38,0.00,,,0.00,Wunderground v.1.15,2013-02-05 03:15:00,
2013-02-04 20:20:00,48.8,24.3,29.94,NW,310,0.0,0.0,38,0.00,,,0.00,Wunderground v.1.15,2013-02-05 03:20:00,
2013-02-04 20:25:00,48.7,24.8,29.94,NW,310,0.0,0.0,39,0.00,,,0.00,Wunderground v.1.15,2013-02-05 03:25:00,
2013-02-04 20:30:00,48.5,24.6,29.94,NW,310,0.0,0.0,39,0.00,,,0.00,Wunderground v.1.15,2013-02-05 03:30:00,
2013-02-04 20:35:00,48.3,24.5,29.95,NW,310,0.0,0.0,39,0.00,,,0.00,Wunderground v.1.15,2013-02-05 03:35:00,
2013-02-04 20:40:00,48.1,24.3,29.95,NW,310,0.0,0.0,39,0.00,,,0.00,Wunderground v.1.15,2013-02-05 03:40:00,
2013-02-04 20:45:00,48.0,24.2,29.95,NW,310,0.0,0.0,39,0.00,,,0.00,Wunderground v.1.15,2013-02-05 03:45:00,
2013-02-04 20:50:00,47.8,24.0,29.95,NW,310,0.0,0.0,39,0.00,,,0.00,Wunderground v.1.15,2013-02-05 03:50:00,
2013-02-04 20:55:00,47.6,24.4,29.95,NW,310,0.0,0.0,40,0.00,,,0.00,Wunderground v.1.15,2013-02-05 03:55:00,
2013-02-04 21:00:00,47.4,24.3,29.95,NW,310,0.0,0.0,40,0.00,,,0.00,Wunderground v.1.15,2013-02-05 04:00:00,
2013-02-04 21:05:00,47.1,24.6,29.94,NW,310,0.0,0.0,41,0.00,,,0.00,Wunderground v.1.15,2013-02-05 04:05:00,
2013-02-04 21:15:00,46.8,24.9,29.94,NW,310,0.0,0.0,42,0.00,,,0.00,Wunderground v.1.15,2013-02-05 04:15:00,
2013-02-04 21:20:00,46.7,24.8,29.94,NW,310,0.0,0.0,42,0.00,,,0.00,Wunderground v.1.15,2013-02-05 04:20:00,
2013-02-04 21:25:00,46.6,24.7,29.94,NW,310,0.0,0.0,42,0.00,,,0.00,Wunderground v.1.15,2013-02-05 04:25:00,
2013-02-04 21:30:00,46.5,25.2,29.94,NW,310,0.0,0.0,43,0.00,,,0.00,Wunderground v.1.15,2013-02-05 04:30:00,
2013-02-04 21:35:00,46.4,25.1,29.95,NW,310,0.0,0.0,43,0.00,,,0.00,Wunderground v.1.15,2013-02-05 04:35:00,
2013-02-04 21:40:00,46.3,25.0,29.94,NW,310,0.0,0.0,43,0.00,,,0.00,Wunderground v.1.15,2013-02-05 04:40:00,
2013-02-04 21:45:00,46.1,24.8,29.94,NW,310,0.0,0.0,43,0.00,,,0.00,Wunderground v.1.15,2013-02-05 04:45:00,
2013-02-04 21:50:00,46.0,24.7,29.94,NW,310,0.0,0.0,43,0.00,,,0.00,Wunderground v.1.15,2013-02-05 04:50:00,
2013-02-04 21:55:00,45.8,25.1,29.94,NW,310,0.0,0.0,44,0.00,,,0.00,Wunderground v.1.15,2013-02-05 04:55:00,
2013-02-04 22:00:00,45.6,24.9,29.94,NW,310,0.0,0.0,44,0.00,,,0.00,Wunderground v.1.15,2013-02-05 05:00:00,
2013-02-04 22:05:00,45.4,25.3,29.92,NW,310,0.0,0.0,45,0.00,,,0.00,Wunderground v.1.15,2013-02-05 05:05:00,
2013-02-04 22:10:00,45.3,25.2,29.92,NW,310,0.0,0.0,45,0.00,,,0.00,Wunderground v.1.15,2013-02-05 05:10:00,
2013-02-04 22:15:00,45.2,25.1,29.92,NW,310,0.0,0.0,45,0.00,,,0.00,Wunderground v.1.15,2013-02-05 05:15:00,
2013-02-04 22:20:00,45.0,25.4,29.92,NW,310,0.0,0.0,46,0.00,,,0.00,Wunderground v.1.15,2013-02-05 05:20:00,
2013-02-04 22:30:00,44.9,25.3,29.91,NW,310,0.0,0.0,46,0.00,,,0.00,Wunderground v.1.15,2013-02-05 05:30:00,
2013-02-04 22:35:00,44.8,25.3,29.91,NW,310,0.0,0.0,46,0.00,,,0.00,Wunderground v.1.15,2013-02-05 05:35:00,
2013-02-04 22:40:00,44.8,25.3,29.91,NW,310,0.0,0.0,46,0.00,,,0.00,Wunderground v.1.15,2013-02-05 05:40:00,
2013-02-04 22:50:00,45.0,25.4,29.91,NW,310,0.0,0.0,46,0.00,,,0.00,Wunderground v.1.15,2013-02-05 05:50:00,
2013-02-04 22:55:00,45.0,26.0,29.92,NW,310,0.0,0.0,47,0.00,,,0.00,Wunderground v.1.15,2013-02-05 05:55:00,
2013-02-04 23:00:00,45.1,26.6,29.91,NW,310,0.0,0.0,48,0.00,,,0.00,Wunderground v.1.15,2013-02-05 06:00:00,
2013-02-04 23:05:00,45.1,26.6,29.90,NW,310,0.0,0.0,48,0.00,,,0.00,Wunderground v.1.15,2013-02-05 06:05:00,
2013-02-04 23:15:00,45.1,27.1,29.90,NW,310,0.0,0.0,49,0.00,,,0.00,Wunderground v.1.15,2013-02-05 06:15:00,
2013-02-04 23:25:00,45.0,27.9,29.90,NW,310,0.0,0.0,51,0.00,,,0.00,Wunderground v.1.15,2013-02-05 06:25:00,
2013-02-04 23:30:00,45.1,28.0,29.90,NW,310,0.0,0.0,51,0.00,,,0.00,Wunderground v.1.15,2013-02-05 06:30:00,
2013-02-04 23:35:00,45.1,28.5,29.90,NW,310,0.0,0.0,52,0.00,,,0.00,Wunderground v.1.15,2013-02-05 06:35:00,
2013-02-04 23:40:00,45.1,28.5,29.90,NW,310,0.0,0.0,52,0.00,,,0.00,Wunderground v.1.15,2013-02-05 06:40:00,
2013-02-04 23:45:00,45.2,28.6,29.90,NW,310,0.0,0.0,52,0.00,,,0.00,Wunderground v.1.15,2013-02-05 06:45:00,
2013-02-04 23:50:00,45.1,28.5,29.90,NW,310,0.0,0.0,52,0.00,,,0.00,Wunderground v.1.15,2013-02-05 06:50:00,